User: anonymous   Login
Location: ????????
(54.9045°N, 39.1041°E)
Time: 22:56:03
(UTC+00:00)
Language:

Cosmos 1536 - Orbit

View from above orbital plane
View from above orbital plane
View from above satellite
View from above satellite

Ground track
Ground track

The orbit data is extracted from the following two-line orbital elements,

1 14699U 84013A   24168.64889445  .00004597  00000-0  25953-3 0  9996
2 14699  82.5499   9.7971 0017304 326.2561  33.7567 15.12776796176850
Epoch (UTC): 16 June 2024 15:34:24
Eccentricity: 0.0017304
inclination: 82.5499°
perigee height: 516 km
apogee height: 539 km
right ascension of ascending node: 9.7971°
argument of perigee: 326.2561°
revolutions per day: 15.12776796
mean anomaly at epoch: 33.7567°
orbit number at epoch: 17685

The dashed part of the orbit path shows where the satellite is in the earth's shadow,  

DLR